Temperature
22 24 26 26 26 25 23 21 21 22 21 22 21 21 22 22 21 20 20 20 20 20 20 19 19 19 18 18 18 18 18 17 17 17 17 17 17 17 17 17 17 16 16 16
23 25 25 26 26 26 25 24 23 23 22 21 22 22 21 21 21 20 20 20 20 20 20 19 19 19 18 18 18 18 17 17 17 17 17 17 16 16 16 16 16 16 16 16
21 23 24 24 24 25 25 24 23 22 21 21 20 20 20 21 21 20 20 20 20 20 20 19 19 18 18 18 18 17 17 17 17 16 16 16 16 16 16 16 16 16 16 16
19 22 23 22 23 24 24 23 22 22 20 20 20 20 21 21 21 20 20 20 20 20 19 19 19 18 18 18 17 17 17 17 16 16 16 16 16 16 15 15 15 15 15 15
17 20 21 23 23 23 23 21 21 20 20 19 20 20 19 20 21 20 20 20 19 19 19 19 18 18 18 17 17 17 17 17 16 16 16 16 15 15 15 15 15 15 14 14
18 20 20 21 22 23 22 19 20 20 19 19 20 18 17 19 20 20 20 19 19 18 18 18 17 17 17 17 17 16 16 16 16 16 16 15 15 15 15 14 14 14 14 14
18 19 19 20 21 22 21 19 19 19 19 19 18 18 18 18 19 19 19 18 18 18 18 17 17 17 17 16 16 16 16 16 15 15 15 15 15 15 14 14 14 14 14 13
16 18 18 19 20 19 18 19 19 19 20 19 18 18 18 18 18 18 18 17 17 17 17 16 16 16 16 16 15 15 15 15 15 15 14 14 14 14 14 14 13 13 13 13
16 16 17 18 19 19 19 19 19 19 19 19 18 17 17 17 17 17 17 17 16 16 16 16 16 16 16 15 15 15 14 14 14 14 14 14 13 13 13 13 13 13 12 12
15 16 16 17 18 19 19 19 19 19 19 19 18 17 16 16 16 16 16 16 15 15 15 15 15 15 15 14 14 14 14 14 13 13 13 13 13 13 12 12 12 12 12 12
14 15 16 17 17 18 18 19 18 18 18 18 17 16 16 16 15 15 15 15 15 15 15 14 14 14 14 14 13 13 13 13 13 12 12 12 12 12 12 12 11 11 11 11
14 15 14 15 16 17 18 18 17 17 17 17 17 16 16 15 15 14 14 14 14 14 14 13 13 13 13 13 13 13 13 12 12 12 11 11 11 11 11 11 10 10 10 10
16 16 16 16 16 17 17 17 17 17 16 16 16 15 15 14 14 14 14 13 13 13 13 13 13 12 12 12 12 12 12 12 11 11 11 11 11 11 10 9 9 9 9 9
16 16 16 16 16 16 16 16 16 16 16 15 15 14 14 14 13 13 13 13 12 12 12 12 12 12 12 12 12 12 11 11 11 11 10 10 10 10 10 9 9 8 8 8
16 16 16 16 15 15 15 15 15 15 14 14 14 14 13 13 12 12 12 12 12 12 12 11 11 11 11 11 11 11 11 11 10 10 10 9 9 9 9 8 8 8 7 7
16 16 15 15 15 15 15 14 14 14 14 14 13 13 13 12 12 12 11 12 12 11 11 11 11 10 10 10 10 10 10 10 10 9 9 9 9 8 8 8 8 7 7 7
15 14 14 14 14 14 14 14 14 13 13 13 12 12 12 12 11 11 11 11 11 11 10 10 10 10 10 10 10 10 10 9 9 9 9 9 8 8 8 7 7 7 6 6
15 15 15 14 14 14 13 13 13 13 12 12 12 11 11 11 11 11 10 10 10 10 10 10 10 10 10 10 10 9 9 9 9 9 9 8 8 8 7 7 7 7 6 6
14 14 14 14 14 14 13 13 12 12 12 12 11 11 11 11 11 10 10 10 10 10 9 9 9 9 9 9 9 9 9 9 9 8 8 8 8 7 7 7 7 7 6 6
14 14 14 13 13 13 12 12 12 11 11 11 11 11 10 10 10 10 10 10 9 9 9 9 9 9 9 9 9 9 9 9 8 8 8 8 8 7 7 7 7 7 6 6
13 13 12 12 12 12 12 11 11 11 11 11 11 10 10 10 10 10 9 9 9 9 9 9 9 9 9 9 9 9 9 9 9 8 8 8 8 7 7 7 7 7 6 6
12 11 11 11 11 11 11 11 11 11 10 10 10 10 10 9 9 9 9 9 9 9 9 9 9 9 9 9 9 9 9 9 8 8 8 8 8 7 7 7 7 7 6 6
11 11 11 11 11 11 10 10 10 10 10 10 10 10 10 9 9 9 9 9 9 9 9 9 9 9 9 9 9 9 9 9 8 8 8 8 8 7 7 7 7 6 6 6
10 10 10 10 10 10 10 10 10 10 10 10 9 9 9 9 9 9 9 9 9 9 9 9 9 9 9 9 9 9 9 9 8 8 8 8 8 7 7 7 7 6 6 6
10 10 10 10 10 10 10 9 9 9 9 9 9 9 9 9 9 9 9 9 9 9 9 9 9 9 9 9 9 9 9 8 8 8 8 8 7 7 7 7 6 6 6 6
10 10 10 10 10 10 9 9 9 9 9 9 9 9 9 9 9 9 9 9 9 9 9 9 9 9 9 9 9 9 8 8 8 8 8 8 7 7 7 7 6 6 6 6
10 9 9 9 9 9 9 9 9 9 9 9 9 9 9 9 9 9 9 9 9 9 9 9 9 9 9 9 9 8 8 8 8 8 8 7 7 7 7 7 6 6 6 6
Wind_Speed
7 6 3 3 5 6 7 10 10 9 11 12 12 12 12 13 14 14 13 12 11 9 8 8 7 7 7 7 6 6 6 5 4 4 3 3 3 3 3 3 4 3 3 2
1 2 1 2 4 4 6 7 7 7 6 7 8 9 11 12 15 15 14 13 11 9 9 8 8 8 7 6 6 6 6 5 4 4 3 3 3 4 4 4 3 3 3 3
2 3 3 4 5 4 4 5 9 9 9 9 11 13 13 13 14 13 12 12 11 9 8 7 7 7 7 6 6 6 5 5 4 4 4 4 4 4 4 4 4 4 3 3
2 2 4 9 5 2 1 1 2 6 8 12 13 10 7 8 11 11 11 11 10 8 7 6 6 6 6 6 6 6 5 5 4 5 4 4 4 4 4 4 4 3 3 4
4 3 4 6 4 1 3 4 2 8 11 11 12 10 6 4 8 10 10 9 8 7 7 7 6 6 7 6 6 6 5 4 4 5 5 5 4 4 4 5 5 4 4 4
4 4 5 5 6 1 7 3 3 8 12 11 9 7 4 4 9 11 11 10 9 7 8 8 7 8 8 7 6 5 4 4 4 4 5 5 5 4 4 5 6 5 5 5
4 3 4 5 6 4 5 5 2 6 10 9 5 6 9 9 11 12 12 10 10 10 8 7 7 8 8 7 6 5 5 6 6 5 5 5 5 5 6 6 7 7 7 6
4 4 6 5 3 4 5 4 5 6 8 10 13 13 12 12 12 12 12 10 9 10 8 6 7 8 8 6 5 6 7 7 7 6 6 6 7 6 6 7 8 7 8 7
5 5 4 1 4 4 6 7 5 6 9 14 15 13 13 10 11 11 11 9 8 9 8 6 6 7 8 5 6 7 8 8 7 8 7 6 6 6 6 6 6 6 6 6
2 2 2 4 6 6 7 9 8 10 12 14 15 13 12 10 8 9 10 9 8 10 9 7 6 6 6 6 6 8 9 8 7 8 8 8 7 6 6 5 6 6 6 6
1 1 5 7 6 7 9 11 12 11 11 13 15 14 12 10 9 8 8 8 9 9 8 7 6 6 6 6 7 9 9 9 8 8 9 9 9 8 6 5 4 7 5 6
3 3 3 0 2 5 10 9 9 12 11 11 12 13 12 10 8 9 9 8 9 9 9 7 7 7 6 6 7 9 8 8 7 7 8 8 9 10 15 13 15 13 11 9
3 3 4 3 4 5 8 9 9 10 12 13 11 12 12 11 9 9 9 9 9 9 8 8 8 7 5 6 7 8 9 8 7 8 7 7 7 9 9 11 16 16 14 14
5 6 5 4 5 7 10 10 10 10 11 12 12 12 12 11 10 11 10 9 9 10 9 8 8 6 5 6 8 9 9 9 9 7 7 7 7 7 8 9 8 7 9 13
4 6 7 7 7 8 9 11 11 11 11 11 11 11 12 12 11 10 9 10 10 10 9 8 8 6 5 7 9 9 8 7 8 8 7 8 7 7 7 8 8 6 5 7
6 7 8 9 9 8 10 11 11 10 10 11 11 11 11 12 12 11 10 10 10 9 8 8 7 6 6 8 9 8 8 12 11 8 8 8 7 7 7 7 7 6 5 4
7 6 8 9 8 9 9 9 10 11 11 11 12 12 13 13 13 11 10 9 9 8 7 7 7 6 7 7 8 7 8 9 12 9 7 7 7 7 6 6 6 5 4 4
6 6 7 9 9 10 10 10 11 12 12 12 13 13 13 13 12 11 10 9 9 8 7 6 7 7 7 7 7 7 7 7 7 7 7 7 7 6 6 6 6 6 4 5
8 8 8 9 9 11 11 11 12 12 12 13 14 13 12 12 11 10 9 9 9 8 4 5 8 7 7 8 8 7 7 8 7 6 6 8 7 6 6 6 5 5 5 5
10 10 10 11 11 12 13 12 13 13 12 13 14 13 12 11 10 10 10 8 5 4 5 6 7 6 6 6 8 6 7 7 7 6 6 6 6 6 5 6 6 6 5 5
10 11 12 13 12 11 12 13 14 13 12 13 14 13 12 10 10 10 9 7 4 5 7 8 6 5 4 6 8 6 7 7 7 6 6 6 6 6 5 6 5 5 5 4
9 11 12 13 13 12 11 11 12 13 13 13 13 12 12 11 10 9 7 5 5 7 6 4 4 5 7 8 6 7 7 7 7 6 6 6 6 5 5 5 5 4 4 4
8 10 12 13 14 13 12 11 11 12 12 12 12 11 11 9 7 8 6 3 5 7 5 4 6 8 9 6 5 6 7 7 6 6 5 5 5 5 5 5 4 4 4 4
9 10 11 12 13 13 13 11 10 10 11 10 10 10 10 8 6 4 5 8 8 8 5 5 8 9 8 5 5 6 6 6 6 6 6 5 5 5 5 5 4 4 4 5
11 12 12 13 12 11 11 12 11 11 10 9 9 8 6 6 6 6 6 6 8 8 5 6 9 8 6 5 5 5 5 5 6 6 5 5 5 4 4 4 4 4 4 4
10 9 9 9 9 9 9 9 8 8 8 8 7 6 6 6 7 6 5 6 7 7 5 4 4 5 4 5 5 5 5 5 5 5 5 5 5 5 4 4 5 4 4 5
10 9 9 8 7 7 8 8 8 8 8 9 8 6 6 6 6 6 6 5 4 4 4 3 3 4 4 4 4 4 4 4 4 4 4 4 4 4 4 5 5 5 6 6
Wind_Direction
201 212 195 214 227 205 182 182 182 208 193 199 186 167 158 148 145 148 150 149 152 154 155 154 156 158 160 165 167 166 162 163 170 171 166 153 149 152 155 158 168 164 154 151
261 306 353 288 272 243 214 187 178 168 201 198 160 144 142 146 151 154 156 157 157 153 148 151 155 156 153 156 159 149 152 161 161 148 140 142 150 150 147 150 146 136 135 142
255 321 29 290 257 247 237 204 170 183 199 159 144 153 158 155 155 158 155 150 149 148 150 149 150 150 150 151 142 140 147 149 147 146 148 156 158 147 146 147 137 135 142 136
133 65 228 245 258 205 166 352 155 145 152 153 149 143 138 144 146 141 138 140 138 142 139 130 125 129 136 130 130 139 143 144 144 145 149 149 144 146 145 135 131 125 123 122
117 166 266 301 327 47 108 13 38 130 133 127 120 94 73 98 122 130 129 125 125 130 123 114 112 115 115 114 116 119 128 136 142 142 140 138 140 143 141 129 117 106 106 105
124 150 215 258 298 325 97 44 354 124 135 136 120 122 163 140 117 113 109 113 112 108 104 103 101 102 101 100 102 104 109 116 120 131 138 139 140 134 121 115 116 110 94 86
156 187 247 271 308 34 115 196 220 133 137 132 123 140 138 121 108 109 108 107 107 103 101 105 107 105 102 98 94 93 90 90 88 94 108 115 114 112 112 114 112 106 96 80
154 180 242 304 43 117 180 163 136 113 110 108 109 109 111 111 107 105 104 100 103 104 96 91 101 110 108 102 98 92 89 87 83 81 88 99 104 104 104 110 108 103 95 81
185 202 243 301 126 144 138 125 123 123 121 119 115 115 110 107 107 104 103 102 102 104 97 83 82 100 107 102 102 100 95 90 86 81 78 81 94 105 103 103 108 107 102 92
62 32 34 63 78 82 103 110 113 120 121 119 118 116 110 110 108 106 105 109 108 105 103 91 81 88 101 105 105 105 101 94 87 85 78 70 68 74 91 98 106 107 106 101
69 43 43 31 55 92 93 95 103 109 117 123 123 122 121 118 114 109 109 112 110 110 108 102 94 92 97 102 105 103 99 97 91 86 86 78 69 57 68 64 103 116 114 116
201 219 139 199 24 98 101 102 115 121 119 120 123 124 122 119 116 113 111 110 108 108 108 106 101 97 92 97 110 114 108 102 100 98 95 96 94 77 57 68 72 78 90 99
169 147 130 113 75 82 96 97 104 118 125 120 115 118 117 116 111 108 108 107 107 107 108 108 106 104 99 101 109 113 117 114 110 109 107 105 104 104 95 69 63 66 75 84
121 108 93 83 89 93 100 93 94 102 108 114 116 114 113 111 109 109 108 107 105 104 101 100 99 98 101 105 108 111 114 116 117 114 110 106 104 103 105 106 95 70 57 70
115 122 133 117 101 100 107 108 108 110 111 108 112 116 117 116 113 110 108 107 104 100 98 99 97 93 94 104 108 111 114 117 115 113 111 110 108 105 103 102 102 98 84 66
123 120 124 121 122 123 122 122 125 125 123 121 120 119 116 114 111 107 104 106 108 107 106 104 103 103 101 107 109 110 112 117 117 115 114 113 111 109 106 106 105 103 100 96
136 139 137 136 133 131 133 137 138 135 130 126 125 122 118 114 110 106 103 101 103 104 105 108 111 106 101 106 110 115 117 120 118 115 114 116 116 115 115 113 112 108 102 103
150 149 146 142 137 130 129 133 131 130 130 128 124 122 121 120 119 118 116 110 103 95 93 105 109 106 105 107 110 114 114 114 115 117 117 119 121 124 124 122 123 119 105 92
125 120 120 123 126 124 124 127 128 127 128 128 125 122 119 119 120 120 116 110 110 108 107 114 115 107 106 108 110 110 114 115 113 113 116 121 119 118 121 122 122 123 119 108
114 114 114 117 116 119 122 122 121 123 126 125 122 119 118 119 120 117 110 102 107 125 124 111 104 100 105 111 114 115 118 120 120 119 116 117 121 125 128 129 130 130 128 126
117 118 120 120 116 116 122 126 125 127 128 126 126 127 125 121 118 116 114 108 99 108 108 106 104 105 110 118 115 116 117 118 118 120 121 122 122 124 126 130 133 136 139 139
119 121 122 122 119 117 116 118 121 123 123 122 123 123 121 118 114 107 103 117 123 114 107 103 104 104 112 112 109 112 116 118 120 122 123 125 127 128 128 129 130 132 136 140
119 121 121 121 121 120 115 116 119 122 124 126 127 127 126 126 128 127 123 124 122 114 109 105 108 105 104 102 106 110 118 121 123 128 131 129 129 132 133 134 135 137 140 142
123 120 119 119 119 120 120 120 117 117 118 117 119 123 125 123 115 114 127 131 128 119 110 107 104 102 101 103 106 110 116 118 120 124 127 126 126 128 133 137 139 145 150 151
124 123 123 124 124 125 124 121 115 114 114 114 115 116 117 124 130 131 125 127 126 117 111 108 104 101 100 104 109 115 124 130 131 130 128 132 137 140 141 143 148 149 154 164
116 118 120 121 123 124 124 121 121 123 122 119 116 116 113 109 112 114 112 116 117 117 114 109 106 100 104 106 107 113 121 131 130 130 138 142 146 151 154 159 157 162 163 169
108 110 112 111 110 115 119 122 124 126 129 129 126 125 122 118 116 116 114 110 109 112 112 109 108 110 116 118 117 120 123 126 131 137 145 146 147 153 166 168 169 167 166 167
Height
1468 1464 1462 1464 1465 1466 1475 1483 1493 1491 1488 1482 1479 1480 1483 1486 1490 1494 1499 1501 1504 1507 1509 1511 1513 1515 1517 1518 1519 1520 1521 1522 1522 1523 1524 1525 1526 1528 1529 1530 1531 1533 1534 1535
1466 1460 1460 1463 1461 1461 1465 1469 1475 1478 1480 1472 1475 1479 1482 1485 1489 1492 1496 1499 1503 1506 1508 1510 1512 1514 1516 1517 1518 1519 1520 1521 1522 1523 1523 1524 1525 1526 1527 1528 1530 1530 1532 1533
1478 1466 1465 1475 1464 1461 1462 1461 1466 1475 1474 1471 1475 1478 1481 1483 1487 1490 1493 1497 1501 1504 1507 1509 1511 1513 1514 1516 1517 1518 1519 1520 1521 1521 1522 1522 1523 1524 1525 1526 1527 1528 1529 1530
1480 1475 1486 1474 1455 1454 1458 1460 1459 1461 1465 1468 1471 1476 1480 1483 1485 1489 1493 1497 1501 1504 1506 1508 1510 1513 1514 1516 1517 1518 1518 1519 1520 1520 1521 1521 1522 1522 1524 1525 1526 1527 1528 1528
1486 1487 1480 1465 1456 1456 1461 1468 1462 1462 1466 1470 1473 1478 1484 1486 1488 1490 1493 1497 1501 1504 1505 1507 1509 1512 1513 1515 1516 1516 1517 1518 1518 1519 1519 1520 1520 1521 1522 1523 1524 1525 1526 1527
1482 1485 1488 1471 1456 1453 1458 1475 1466 1463 1466 1470 1472 1484 1488 1487 1488 1491 1494 1497 1501 1504 1505 1507 1509 1511 1513 1514 1515 1515 1516 1516 1517 1518 1518 1519 1519 1520 1521 1522 1523 1524 1524 1525
1481 1483 1477 1462 1455 1454 1474 1478 1468 1466 1466 1469 1473 1477 1483 1487 1489 1492 1495 1498 1501 1503 1505 1507 1509 1510 1512 1512 1513 1514 1515 1515 1516 1517 1517 1518 1518 1519 1520 1521 1522 1523 1523 1524
1481 1485 1482 1460 1457 1464 1468 1465 1467 1467 1469 1471 1473 1478 1482 1486 1489 1492 1495 1499 1502 1504 1506 1508 1509 1510 1511 1511 1512 1513 1514 1515 1515 1516 1516 1517 1518 1518 1519 1520 1521 1521 1522 1523
1474 1475 1465 1460 1459 1461 1461 1464 1467 1468 1471 1473 1476 1481 1484 1488 1490 1493 1496 1499 1502 1503 1506 1508 1509 1509 1509 1510 1512 1512 1513 1514 1515 1515 1516 1517 1517 1518 1519 1520 1521 1521 1522 1523
1470 1467 1465 1463 1461 1462 1463 1464 1467 1470 1472 1474 1477 1482 1486 1490 1493 1495 1497 1500 1502 1503 1505 1507 1508 1509 1509 1510 1511 1512 1512 1513 1514 1515 1516 1517 1518 1519 1519 1520 1521 1522 1523 1524
1471 1468 1466 1466 1465 1465 1466 1467 1469 1472 1475 1477 1480 1484 1488 1492 1495 1497 1498 1501 1502 1504 1506 1507 1508 1509 1509 1510 1511 1512 1512 1513 1514 1515 1516 1517 1518 1520 1521 1522 1523 1524 1524 1525
1472 1468 1468 1470 1469 1469 1468 1470 1472 1473 1476 1479 1482 1484 1489 1492 1495 1497 1500 1502 1503 1504 1506 1507 1508 1509 1510 1511 1511 1512 1513 1514 1515 1516 1518 1519 1520 1521 1523 1524 1525 1526 1527 1527
1465 1465 1467 1469 1470 1470 1469 1471 1473 1476 1477 1479 1483 1486 1489 1492 1495 1498 1501 1502 1503 1505 1506 1507 1508 1509 1510 1511 1512 1513 1514 1515 1516 1518 1519 1521 1522 1522 1524 1526 1528 1529 1530 1531
1464 1466 1468 1469 1471 1471 1472 1473 1476 1478 1480 1482 1485 1488 1491 1494 1497 1499 1501 1503 1505 1507 1508 1509 1510 1511 1512 1513 1513 1514 1516 1517 1518 1520 1521 1523 1524 1525 1526 1528 1529 1531 1533 1534
1465 1466 1468 1470 1472 1473 1474 1476 1478 1481 1483 1485 1488 1491 1493 1495 1498 1501 1503 1505 1507 1509 1510 1511 1512 1513 1514 1515 1515 1516 1517 1518 1520 1522 1523 1525 1527 1528 1529 1531 1532 1534 1535 1537
1464 1466 1468 1470 1472 1474 1475 1477 1479 1483 1485 1487 1490 1493 1495 1497 1500 1502 1505 1507 1509 1510 1512 1513 1514 1515 1516 1517 1517 1518 1520 1521 1523 1525 1526 1528 1530 1531 1533 1534 1536 1537 1538 1540
1463 1465 1467 1470 1472 1474 1476 1478 1481 1484 1487 1489 1492 1494 1497 1499 1502 1505 1507 1510 1511 1513 1515 1516 1517 1518 1519 1519 1520 1521 1523 1525 1526 1528 1530 1531 1533 1535 1536 1538 1539 1541 1542 1543
1462 1464 1466 1468 1470 1473 1476 1479 1482 1485 1488 1491 1494 1496 1499 1501 1504 1507 1510 1512 1514 1516 1518 1519 1520 1521 1522 1523 1524 1525 1527 1528 1530 1532 1533 1535 1537 1538 1540 1541 1543 1544 1545 1546
1462 1464 1466 1469 1471 1474 1477 1480 1483 1486 1490 1493 1496 1498 1501 1504 1507 1510 1513 1515 1517 1518 1521 1523 1524 1525 1526 1527 1528 1529 1530 1532 1534 1535 1537 1539 1540 1542 1543 1544 1546 1547 1548 1549
1462 1464 1466 1469 1472 1475 1478 1482 1485 1488 1492 1495 1498 1501 1504 1507 1510 1513 1515 1518 1520 1522 1524 1526 1527 1528 1530 1531 1532 1533 1534 1535 1537 1539 1540 1542 1543 1544 1546 1547 1548 1549 1550 1551
1462 1465 1467 1470 1473 1477 1480 1484 1487 1491 1495 1498 1500 1503 1506 1510 1513 1515 1518 1520 1523 1525 1527 1529 1530 1531 1533 1534 1535 1537 1538 1539 1541 1542 1543 1545 1546 1547 1548 1549 1550 1551 1552 1553
1464 1466 1469 1472 1475 1479 1483 1487 1489 1493 1497 1500 1503 1506 1509 1512 1516 1518 1521 1523 1525 1527 1529 1531 1533 1534 1535 1537 1538 1539 1541 1542 1543 1545 1546 1547 1548 1549 1550 1551 1552 1553 1554 1554
1466 1468 1471 1474 1477 1481 1485 1490 1493 1496 1499 1502 1506 1509 1512 1515 1518 1520 1523 1526 1528 1530 1532 1534 1535 1537 1538 1539 1541 1542 1543 1544 1546 1547 1548 1549 1550 1551 1552 1553 1553 1554 1555 1555
1468 1471 1474 1477 1481 1484 1488 1493 1497 1500 1503 1507 1510 1513 1515 1518 1521 1524 1526 1528 1531 1533 1534 1536 1538 1539 1541 1542 1543 1544 1545 1547 1548 1549 1550 1551 1552 1552 1553 1554 1554 1555 1555 1556
1470 1474 1477 1480 1484 1488 1492 1496 1499 1503 1507 1510 1514 1517 1519 1522 1524 1526 1529 1531 1533 1535 1537 1539 1540 1541 1543 1544 1545 1546 1547 1548 1549 1550 1551 1552 1553 1553 1554 1554 1555 1555 1556 1556
1473 1477 1481 1484 1488 1492 1495 1499 1503 1506 1510 1513 1516 1519 1522 1524 1527 1529 1531 1534 1535 1537 1539 1541 1542 1543 1545 1546 1547 1548 1549 1550 1551 1552 1552 1553 1553 1554 1554 1555 1555 1555 1555 1556
1479 1482 1486 1489 1493 1496 1500 1503 1506 1509 1513 1516 1518 1522 1524 1527 1529 1532 1534 1536 1537 1539 1541 1543 1544 1545 1547 1548 1549 1549 1550 1551 1552 1552 1553 1553 1554 1554 1554 1555 1555 1555 1555 1555